• In Deutschland
  • Länderverzeichnis
  • Für 7 Tage
  • Wassertemperatur
  • Satellitenkarten
  • Wetterkarte
  • Widgets
  • user-avatar
    Anmelden

    Stündliche Wetter Gjirokaster

    Heute, 21 Januar, Sonntag

    Zeit Temperatur Niederschläge Wind Luftdruck Luftfeuchtigkeit
    00:00 +2°C° 0,1 mm 2 m/S 647 mmHg 95%
    01:00 +1°C° 0,1 mm 2 m/S 646 mmHg 95%
    02:00 +1°C° 0 mm 2 m/S 646 mmHg 94%
    03:00 0°C° 0 mm 3 m/S 646 mmHg 94%
    04:00 -1°C° 0 mm 3 m/S 645 mmHg 93%
    05:00 -1°C° 0 mm 3 m/S 645 mmHg 93%
    06:00 0°C° 0 mm 3 m/S 644 mmHg 92%
    07:00 0°C° 0 mm 3 m/S 644 mmHg 92%
    08:00 +1°C° 0,1 mm 3 m/S 644 mmHg 90%
    09:00 +2°C° 0,1 mm 3 m/S 644 mmHg 88%
    10:00 +3°C° 0,1 mm 4 m/S 644 mmHg 86%
    11:00 +3°C° 0,1 mm 4 m/S 643 mmHg 84%
    12:00 +3°C° 0,1 mm 4 m/S 643 mmHg 82%
    13:00 +4°C° 0,1 mm 4 m/S 642 mmHg 81%
    14:00 +3°C° 0,9 mm 4 m/S 642 mmHg 84%
    15:00 +1°C° 0,9 mm 4 m/S 641 mmHg 87%
    16:00 +1°C° 0,9 mm 4 m/S 641 mmHg 90%
    17:00 +1°C° 2,6 mm 4 m/S 640 mmHg 92%
    18:00 +1°C° 2,6 mm 3 m/S 640 mmHg 94%
    19:00 +1°C° 2,6 mm 3 m/S 640 mmHg 96%
    20:00 0°C° 1,2 mm 4 m/S 640 mmHg 95%
    21:00 0°C° 1,2 mm 4 m/S 640 mmHg 94%
    22:00 0°C° 1,2 mm 5 m/S 640 mmHg 93%
    23:00 0°C° 0,2 mm 5 m/S 640 mmHg 93%

    Morgen, 22 Januar, Montag

    Zeit Temperatur Niederschläge Wind Luftdruck Luftfeuchtigkeit
    00:00 -2°C° 0,2 mm 6 m/S 640 mmHg 93%
    01:00 -2°C° 0,2 mm 6 m/S 640 mmHg 92%
    02:00 -3°C° 0,2 mm 6 m/S 640 mmHg 92%
    03:00 -3°C° 0,2 mm 6 m/S 641 mmHg 91%
    04:00 -3°C° 0,2 mm 6 m/S 641 mmHg 91%
    05:00 -4°C° 0 mm 6 m/S 641 mmHg 90%
    06:00 -4°C° 0 mm 6 m/S 642 mmHg 89%
    07:00 -5°C° 0 mm 6 m/S 642 mmHg 89%
    08:00 -4°C° 0 mm 6 m/S 643 mmHg 82%
    09:00 -3°C° 0 mm 6 m/S 644 mmHg 76%
    10:00 -3°C° 0 mm 6 m/S 644 mmHg 69%
    11:00 -2°C° 0 mm 6 m/S 644 mmHg 67%
    12:00 -2°C° 0 mm 6 m/S 645 mmHg 65%
    13:00 -2°C° 0 mm 6 m/S 645 mmHg 63%
    14:00 -2°C° 0 mm 6 m/S 645 mmHg 64%
    15:00 -2°C° 0 mm 5 m/S 645 mmHg 65%
    16:00 -2°C° 0 mm 4 m/S 645 mmHg 66%
    17:00 -3°C° 0 mm 4 m/S 646 mmHg 69%
    18:00 -4°C° 0 mm 4 m/S 646 mmHg 73%
    19:00 -5°C° 0 mm 4 m/S 646 mmHg 76%
    20:00 -5°C° 0 mm 4 m/S 646 mmHg 76%
    21:00 -5°C° 0 mm 4 m/S 647 mmHg 75%
    22:00 -6°C° 0 mm 3 m/S 647 mmHg 75%
    23:00 -6°C° 0 mm 3 m/S 647 mmHg 74%

    übermorgen, 23 Januar, Dienstag

    Zeit Temperatur Niederschläge Wind Luftdruck Luftfeuchtigkeit
    00:00 -6°C° 0 mm 3 m/S 647 mmHg 73%
    01:00 -6°C° 0 mm 3 m/S 647 mmHg 72%
    02:00 -6°C° 0 mm 3 m/S 647 mmHg 71%
    03:00 -6°C° 0 mm 3 m/S 647 mmHg 70%
    04:00 -6°C° 0 mm 3 m/S 648 mmHg 69%
    05:00 -6°C° 0 mm 3 m/S 648 mmHg 68%
    06:00 -6°C° 0 mm 3 m/S 648 mmHg 66%
    07:00 -6°C° 0 mm 3 m/S 649 mmHg 65%
    08:00 -4°C° 0 mm 3 m/S 649 mmHg 61%
    09:00 -2°C° 0 mm 3 m/S 650 mmHg 56%
    10:00 +1°C° 0 mm 2 m/S 651 mmHg 51%
    11:00 +1°C° 0 mm 2 m/S 651 mmHg 49%
    12:00 +2°C° 0 mm 2 m/S 651 mmHg 46%
    13:00 +3°C° 0 mm 2 m/S 651 mmHg 44%
    14:00 +2°C° 0 mm 2 m/S 651 mmHg 48%
    15:00 +2°C° 0 mm 2 m/S 651 mmHg 51%
    16:00 +2°C° 0 mm 1 m/S 651 mmHg 55%
    17:00 -1°C° 0 mm 2 m/S 652 mmHg 57%
    18:00 -2°C° 0 mm 2 m/S 652 mmHg 58%
    19:00 -3°C° 0 mm 2 m/S 652 mmHg 60%
    20:00 -4°C° 0 mm 2 m/S 652 mmHg 60%
    21:00 -5°C° 0 mm 3 m/S 653 mmHg 60%
    22:00 -6°C° 0 mm 3 m/S 653 mmHg 60%
    23:00 -6°C° 0 mm 3 m/S 653 mmHg 59%

    24 Januar, Mittwoch

    Zeit Temperatur Niederschläge Wind Luftdruck Luftfeuchtigkeit
    00:00 -6°C° 0 mm 3 m/S 653 mmHg 59%
    01:00 -6°C° 0 mm 3 m/S 654 mmHg 58%
    02:00 -7°C° 0 mm 3 m/S 654 mmHg 58%
    03:00 -7°C° 0 mm 3 m/S 654 mmHg 57%
    04:00 -7°C° 0 mm 3 m/S 654 mmHg 57%
    05:00 -7°C° 0 mm 3 m/S 654 mmHg 57%
    06:00 -7°C° 0 mm 3 m/S 655 mmHg 57%
    07:00 -7°C° 0 mm 3 m/S 655 mmHg 56%
    08:00 -6°C° 0 mm 3 m/S 656 mmHg 51%
    09:00 -3°C° 0 mm 2 m/S 656 mmHg 47%
    10:00 -2°C° 0 mm 2 m/S 657 mmHg 42%
    11:00 -1°C° 0 mm 2 m/S 657 mmHg 40%
    12:00 +2°C° 0 mm 1 m/S 657 mmHg 38%
    13:00 +3°C° 0 mm 1 m/S 657 mmHg 37%
    14:00 +2°C° 0 mm 1 m/S 657 mmHg 41%
    15:00 +2°C° 0 mm 1 m/S 657 mmHg 46%
    16:00 +1°C° 0 mm 1 m/S 657 mmHg 51%
    17:00 0°C° 0 mm 1 m/S 657 mmHg 53%
    18:00 -1°C° 0 mm 1 m/S 657 mmHg 56%
    19:00 -4°C° 0 mm 2 m/S 656 mmHg 58%
    20:00 -5°C° 0 mm 2 m/S 656 mmHg 59%
    21:00 -5°C° 0 mm 2 m/S 656 mmHg 59%
    22:00 -5°C° 0 mm 2 m/S 656 mmHg 59%
    23:00 -5°C° 0 mm 2 m/S 656 mmHg 59%

    25 Januar, Donnerstag

    Zeit Temperatur Niederschläge Wind Luftdruck Luftfeuchtigkeit
    00:00 -5°C° 0 mm 2 m/S 656 mmHg 58%
    01:00 -6°C° 0 mm 2 m/S 656 mmHg 58%
    02:00 -6°C° 0 mm 2 m/S 655 mmHg 56%
    03:00 -6°C° 0 mm 2 m/S 655 mmHg 55%
    04:00 -4°C° 0 mm 1 m/S 655 mmHg 54%
    05:00 -4°C° 0 mm 1 m/S 655 mmHg 53%
    06:00 -4°C° 0 mm 1 m/S 655 mmHg 52%
    07:00 -4°C° 0 mm 1 m/S 654 mmHg 51%
    08:00 -2°C° 0 mm 1 m/S 655 mmHg 46%
    09:00 0°C° 0 mm 1 m/S 655 mmHg 42%
    10:00 +1°C° 0 mm 0 m/S 656 mmHg 38%
    11:00 +2°C° 0 mm 1 m/S 655 mmHg 39%
    12:00 +3°C° 0 mm 1 m/S 655 mmHg 40%
    13:00 +3°C° 0 mm 2 m/S 655 mmHg 41%
    14:00 +2°C° 0 mm 2 m/S 654 mmHg 46%
    15:00 +1°C° 0 mm 2 m/S 654 mmHg 51%
    16:00 +1°C° 0 mm 2 m/S 653 mmHg 56%
    17:00 -2°C° 0 mm 2 m/S 653 mmHg 59%
    18:00 -1°C° 0 mm 1 m/S 653 mmHg 61%
    19:00 -2°C° 0 mm 1 m/S 653 mmHg 64%
    20:00 -2°C° 0 mm 1 m/S 652 mmHg 63%
    21:00 -2°C° 0 mm 1 m/S 652 mmHg 63%
    22:00 -2°C° 0 mm 1 m/S 652 mmHg 62%
    23:00 -3°C° 0 mm 1 m/S 652 mmHg 61%

    26 Januar, Freitag

    Zeit Temperatur Niederschläge Wind Luftdruck Luftfeuchtigkeit
    00:00 -3°C° 0 mm 1 m/S 652 mmHg 61%
    01:00 -3°C° 0 mm 1 m/S 652 mmHg 60%
    02:00 -3°C° 0 mm 1 m/S 652 mmHg 59%
    03:00 -3°C° 0 mm 1 m/S 652 mmHg 59%
    04:00 -3°C° 0 mm 1 m/S 651 mmHg 58%
    05:00 -3°C° 0 mm 1 m/S 652 mmHg 59%
    06:00 -5°C° 0 mm 2 m/S 652 mmHg 59%
    07:00 -5°C° 0 mm 2 m/S 652 mmHg 59%
    08:00 -3°C° 0 mm 2 m/S 653 mmHg 55%
    09:00 -2°C° 0 mm 2 m/S 653 mmHg 52%
    10:00 +1°C° 0 mm 2 m/S 654 mmHg 48%
    11:00 +2°C° 0 mm 2 m/S 654 mmHg 48%
    12:00 +2°C° 0 mm 2 m/S 654 mmHg 48%
    13:00 +3°C° 0 mm 2 m/S 654 mmHg 48%
    14:00 +2°C° 0 mm 2 m/S 654 mmHg 53%
    15:00 +2°C° 0 mm 2 m/S 654 mmHg 59%
    16:00 +1°C° 0 mm 2 m/S 654 mmHg 64%
    17:00 -1°C° 0 mm 2 m/S 654 mmHg 68%
    18:00 -2°C° 0 mm 2 m/S 654 mmHg 72%
    19:00 -3°C° 0 mm 2 m/S 654 mmHg 76%
    20:00 -3°C° 0 mm 2 m/S 654 mmHg 76%
    21:00 -4°C° 0 mm 2 m/S 654 mmHg 77%
    22:00 -4°C° 0 mm 2 m/S 654 mmHg 77%
    23:00 -4°C° 0 mm 2 m/S 654 mmHg 76%
    Mehr zeigen